Location: Apeadero de Los Molinos-Guadarrama
(40.7091°N, 4.0689°W)
Time: 13:33:59
(UTC+00:00)

Cosmos 1242 Rocket - Pass Details

Date: 14 May 2021
Orbit: 446 x 484 km, 81.2° (Epoch: 18 June)

Event Time Altitude Azimuth Distance (km) Brightness Sun altitude
Rises 20:24:38 0° 199° (SSW) 2,505 6.0 -10.4°
Reaches altitude 10° 20:26:46 10° 205° (SSW) 1,627 5.1 -10.7°
Maximum altitude 20:30:13 50° 281° (WNW) 603 3.5 -11.2°
Drops below altitude 10° 20:33:41 10° 359° (N) 1,618 5.8 -11.7°
Sets 20:35:48 0° 4° (N) 2,491 6.7 -12.1°
